Regional Weather Roundup
Issued by NWS

Current Version | Previous Version | Text Only | Print | Product List | Glossary On
Versions: 1 2 3 4 5 6 7 8 9 10 11 12 13 14 15 16 17 18 19 20 21 22 23 24 25 26 27 28 29 30 31 32 33 34 35 36 37 38 39 40 41 42 43 44 45 46 47 48 49 50
000
ASUS43 KOAX 200110
RWRNE

WEATHER ROUNDUP FOR NEBRASKA
NATIONAL WEATHER SERVICE OMAHA NE
800 PM CDT TUE JUN 19 2018

NOTES: SATELLITE DATA IS BEING USED TO AUGMENT CLOUD COVER ABOVE
       12000 FEET.
       "FAIR" INDICATES FEW OR NO CLOUDS BELOW 12,000 FEET WITH NO
       SIGNIFICANT WEATHER AND/OR OBSTRUCTIONS TO VISIBILITY.


NEZ001>004-019>022-054>056-200200-
NEBRASKA PANHANDLE

CITY           SKY/WX    TMP DP  RH WIND       PRES   REMARKS
SCOTTSBLUFF    CLOUDY    61  61 100 NE10      30.06S
ALLIANCE       CLOUDY    62  61  96 N10       30.05R
CHADRON        CLOUDY    58  55  90 CALM      30.05F
GORDON         LGT RAIN  58  55  87 CALM      30.04F
KIMBALL        LGT RAIN  59  57  94 E7        30.07F
SIDNEY         LGT RAIN  61  59  93 NE15G25   30.04S FOG
$$

NEZ057>060-069>072-079>082-200200-
SOUTHWEST NEBRASKA

CITY           SKY/WX    TMP DP  RH WIND       PRES   REMARKS
NORTH PLATTE   TSTM      70  66  87 N14G25    29.95S
IMPERIAL       CLOUDY    69  63  81 N5G21     29.96R
LEXINGTON      CLOUDY    72  65  80 NE13      29.90S
MCCOOK         CLOUDY    72  65  78 NE22G32   29.83F
OGALLALA       CLOUDY    69  64  83 NE14      29.94R
$$

NEZ005>010-023>029-035>040-094-200200-
NORTH CENTRAL NEBRASKA

CITY           SKY/WX    TMP DP  RH WIND       PRES   REMARKS
VALENTINE      CLOUDY    70  63  78 N7        30.00R
AINSWORTH      DRIZZLE  N/A N/A N/A N7        29.99F
BROKEN BOW     CLOUDY    72  65  78 NE17G23   29.92F
O`NEILL        CLOUDY    72  67  85 N6        29.98R
ORD            CLOUDY    70  65  84 N10       29.90R
THEDFORD       CLOUDY    69  63  81 N8        29.99F
$$

NEZ041-046>049-061>064-073>077-083>087-200200-
SOUTH CENTRAL NEBRASKA

CITY           SKY/WX    TMP DP  RH WIND       PRES   REMARKS
GRAND ISLAND   LGT RAIN  73  68  84 E28G43    29.82
AURORA         TSTM      76  70  82 NE12G21   29.91R
HASTINGS       TSTM      74  70  87 E16G22    29.92R
HEBRON         TSTM      67  66  96 W7        29.89R
HOLDREGE       CLOUDY    69  69  98 NE10      29.88F
KEARNEY        CLOUDY    72  66  81 N15       29.90R
YORK           TSTM      70  68  94 E8        29.91R VSB 1
$$

NEZ011>018-030>034-042>045-200200-
NORTHEAST NEBRASKA

CITY           SKY/WX    TMP DP  RH WIND       PRES   REMARKS
NORFOLK        CLOUDY    74  66  76 N10       29.89R
ALBION         CLOUDY    73  66  78 NE12G22   29.89F
BLAIR          LGT RAIN  76  73  88 NE3       29.88R
COLUMBUS       CLOUDY    76  68  76 N8        29.90R
FREMONT        CLOUDY    78  73  83 CALM      29.87F
TEKAMAH        CLOUDY    76  70  82 N9        29.85F
WAYNE          PTSUNNY   73  72  96 N7        29.89F
$$

NEZ050>053-065>068-078-088>093-200200-
SOUTHEAST NEBRASKA

CITY           SKY/WX    TMP DP  RH WIND       PRES   REMARKS
LINCOLN        LGT RAIN  71  65  81 E13       29.86F
OMAHA EPPLEY   CLOUDY    78  73  84 N7        29.85S THUNDER
BEATRICE       TSTM      73  68  85 E5        29.87R
FALLS CITY     CLOUDY    78  73  84 E5        29.86R
NEBRASKA CITY  CLOUDY    78  75  89 SE3       29.84F
PLATTSMOUTH    RAIN      78  74  87 W3        29.86R
$$

NEZ044-045-051>053-067-200200-
OMAHA AREA

CITY           SKY/WX    TMP DP  RH WIND       PRES   REMARKS
OMAHA EPPLEY   CLOUDY    78  73  84 N7        29.85S THUNDER
BLAIR          LGT RAIN  76  73  88 NE3       29.88R
FREMONT        CLOUDY    78  73  83 CALM      29.87F
MILLARD        RAIN      78  74  90 N3        29.86S
OFFUTT AFB     CLOUDY    79  73  83 N6        29.83F
PLATTSMOUTH    RAIN      78  74  87 W3        29.86R
WAHOO          MOCLDY    76  73  93 E3        29.86F FOG
$$



USA.gov is the U.S. government's official web portal to all federal, state and local government web resources and services.